Location: Banios
(43.0451°N, 0.2335°E)
Time: 13:13:28
(UTC+00:00)

Atlas Centaur 2 - Pass Details

Date: 25 January 2021
Orbit: 459 x 1309 km, 30.4° (Epoch: 25 February)

Event Time Altitude Azimuth Distance (km) Brightness Sun altitude
Exits shadow 06:16:48 - 249° (WSW) 3,281 4.8 -11.8°
Reaches altitude 10° 06:17:39 10° 246° (WSW) 3,056 4.6 -11.7°
Maximum altitude 06:24:06 29° 190° (S) 2,123 4.3 -10.5°
Drops below altitude 10° 06:31:04 10° 135° (SE) 3,314 6.4 -9.3°
Sets 06:34:30 0° 125° (SE) 4,282 7.5 -8.7°
